WB7HPF Weather Reports


Display with metric or nautical units.
time (UTC)temp
F
wind
direction
speed
MPH
gust
MPH
rain 1hr
in
rain 24hr
in
rain mn
in
humidity
%
barometer
mb
20260504231424 73 343 6.0 11.0 0.00 0.00 0.00 54 1007.6
20260504230424 73 347 6.0 11.0 0.00 0.00 0.00 54 1007.7
20260504225426 72 292 6.0 12.0 0.00 0.00 0.00 53 1007.8
20260504224425 72 317 7.0 13.0 0.00 0.00 0.00 52 1007.9
20260504223426 73 306 6.0 13.0 0.00 0.00 0.00 51 1008.0
20260504222425 73 299 6.0 11.0 0.00 0.00 0.00 53 1008.0
20260504221425 73 298 4.0 9.0 0.00 0.00 0.00 51 1008.0
20260504214424 75 314 1.0 6.0 0.00 0.00 0.00 52 1008.2
20260504213424 74 299 0.0 2.0 0.00 0.00 0.00 53 1008.4
20260504212428 72 126 0.0 2.0 0.00 0.00 0.00 58 1008.4
20260504210424 70 311 1.0 4.0 0.00 0.00 0.00 60 1008.5
20260504205424 70 307 1.0 4.0 0.00 0.00 0.00 58 1008.5
20260504204424 70 300 1.0 4.0 0.00 0.00 0.00 57 1008.4
20260504203424 69 304 1.0 4.0 0.00 0.00 0.00 58 1008.5
20260504202424 69 315 1.0 7.0 0.00 0.00 0.00 59 1008.5
20260504201424 70 311 1.0 5.0 0.00 0.00 0.00 56 1008.5
20260504200424 72 304 1.0 5.0 0.00 0.00 0.00 53 1008.5
20260504195424 73 307 1.0 4.0 0.00 0.00 0.00 53 1008.5
20260504194421 71 307 1.0 4.0 0.00 0.00 0.00 55 1008.4
20260504193421 71 309 1.0 4.0 0.00 0.00 0.00 53 1008.5
20260504192422 71 311 1.0 5.0 0.00 0.00 0.00 51 1008.5
20260504191426 71 39 1.0 4.0 0.00 0.00 0.00 51 1008.4
20260504190422 72 307 1.0 4.0 0.00 0.00 0.00 50 1008.4
20260504185422 73 103 0.0 3.0 0.00 0.00 0.00 50 1008.4
20260504184422 72 123 1.0 4.0 0.00 0.00 0.00 52 1008.5
20260504183422 71 339 0.0 4.0 0.00 0.00 0.00 53 1008.5
20260504182422 70 294 1.0 6.0 0.00 0.00 0.00 54 1008.7
20260504181421 70 304 1.0 6.0 0.00 0.00 0.00 55 1008.8
20260504180421 70 306 1.0 5.0 0.00 0.00 0.00 55 1008.7
20260504175421 69 300 1.0 4.0 0.00 0.00 0.00 55 1008.6
20260504174420 70 332 1.0 4.0 0.00 0.00 0.00 54 1008.5
20260504173424 70 309 0.0 2.0 0.00 0.00 0.00 54 1008.5
20260504172421 70 122 0.0 1.0 0.00 0.00 0.00 57 1008.6
20260504171421 68 41 0.0 2.0 0.00 0.00 0.00 58 1008.7
20260504170421 67 299 0.0 4.0 0.00 0.00 0.00 57 1008.7
20260504160418 71 315 0.0 2.0 0.00 0.00 0.00 52 1008.5
20260504150418 68 334 0.0 1.0 0.00 0.00 0.00 55 1008.1
20260504140413 61 331 0.0 2.0 0.00 0.00 0.00 68 1007.8
20260504130412 53 123 0.0 0.0 0.00 0.00 0.00 75 1007.4
20260504110409 53 273 0.0 0.0 0.00 0.00 0.00 77 1007.4
20260504080403 61 105 0.0 0.0 0.00 0.00 0.00 49 1006.8
20260504070359 58 118 0.0 0.0 0.00 0.00 0.00 60 1007.1
20260504050359 62 164 0.0 1.0 0.00 0.00 0.00 54 1007.6
20260504045357 62 194 0.0 0.0 0.00 0.00 0.00 57 1007.6
20260504044358 62 223 0.0 0.0 0.00 0.00 0.00 62 1007.5
20260504043358 63 139 0.0 0.0 0.00 0.00 0.00 57 1007.5
20260504042359 64 138 0.0 0.0 0.00 0.00 0.00 53 1007.4
20260504041357 65 139 0.0 0.0 0.00 0.00 0.00 51 1007.4
20260504034354 68 121 0.0 0.0 0.00 0.00 0.00 47 1007.2
20260504033351 68 121 0.0 0.0 0.00 0.00 0.00 48 1007.2
20260504032351 71 121 0.0 0.0 0.00 0.00 0.00 47 1007.2
20260504031351 72 121 0.0 0.0 0.00 0.00 0.00 46 1007.1
20260504030353 73 121 0.0 0.0 0.00 0.00 0.00 45 1007.2
20260504025353 73 121 0.0 0.0 0.00 0.00 0.00 45 1007.2
20260504024352 75 121 0.0 0.0 0.00 0.00 0.00 41 1007.3
20260504023354 76 121 0.0 0.0 0.00 0.00 0.00 37 1007.4
20260504022350 78 121 0.0 0.0 0.00 0.00 0.00 36 1007.5
20260504021350 79 121 0.0 0.0 0.00 0.00 0.00 34 1007.5
20260504020349 79 121 0.0 0.0 0.00 0.00 0.00 38 1007.6
20260504014351 79 113 0.0 2.0 0.00 0.00 0.00 36 1007.8
20260504012349 81 327 0.0 2.0 0.00 0.00 0.00 30 1008.0
20260504011347 80 294 0.0 1.0 0.00 0.00 0.00 38 1008.2
20260504010347 79 294 0.0 1.0 0.00 0.00 0.00 37 1008.3
20260504005346 78 287 0.0 1.0 0.00 0.00 0.00 40 1008.4
20260504004346 78 94 0.0 1.0 0.00 0.00 0.00 43 1008.5
20260504003346 78 306 0.0 2.0 0.00 0.00 0.00 41 1008.5
20260504001346 79 294 0.0 2.0 0.00 0.00 0.00 41 1008.7
20260504000346 79 301 1.0 3.0 0.00 0.00 0.00 39 1008.7
20260503234344 80 292 1.0 2.0 0.00 0.00 0.00 38 1008.9
20260503233344 79 299 1.0 4.0 0.00 0.00 0.00 37 1009.0
20260503232344 81 142 0.0 2.0 0.00 0.00 0.00 37 1009.0